Weather History for EHWO - October, 2012

Change the Weather History Date:

Thursday, October 4, 2012

  Actual Average Record
Temperature  
Mean Temperature 54 °F -  
Max Temperature 59 °F 56 °F 71 °F (2010)
Min Temperature 50 °F 44 °F 39 °F (2008)
Degree Days  
Heating Degree Days 10    
Growing Degree Days 4 (Base 50)    
Moisture  
Dew Point 48 °F    
Average Humidity 85    
Maximum Humidity 100    
Minimum Humidity 59    
Precipitation  
Precipitation 0.00 in - - ()
Sea Level Pressure  
Sea Level Pressure 29.75 in    
Wind  
Wind Speed 7 mph ()    
Max Wind Speed 21 mph    
Max Gust Speed -    
Visibility 5.9 miles    
Events Rain    
Averages and records for this station are not official NWS values.
T = Trace of Precipitation, MM = Missing Value Source: Averaged Metar Reports

Daily Weather History Graph

Daily Weather History Graph

Search for Another Location

Airport or City:

Trip Planner

Search our weather history database for the weather conditions in past years. The results will help you decide how hot, cold, wet, or windy it might be!

Date:

Astronomy

Oct. 04, 2012 Rise Set
Actual Time 7:48 AM CEST 7:12 PM CEST
Civil Twilight 7:15 AM CEST 7:46 PM CEST
Nautical Twilight 6:36 AM CEST 8:24 PM CEST
Astronomical Twilight 5:57 AM CEST 9:03 PM CEST
Moon 9:04 PM CEST (10/4) 12:23 PM CEST (10/4)
Length of Visible Light 12h 30m
Length of Day
11h 24m
Waning Gibbous, 84% of the Moon is Illuminated
Oct 4
Waning Gibbous
Oct 8
Last Quarter
Oct 15
New
Oct 22
First Quarter
Oct 29
Full

Hourly Weather History & Observations

Time (CEST) Temp. Dew Point Humidity Pressure Visibility Wind Dir Wind Speed Gust Speed Precip Events Conditions
12:25 AM 51.8 °F 50.0 °F 94% 29.74 in 6.2 mi SSW 4.6 mph - N/A   Overcast
12:55 AM 51.8 °F 50.0 °F 94% 29.74 in 6.2 mi SSW 4.6 mph - N/A   Overcast
1:25 AM 51.8 °F 50.0 °F 94% 29.74 in 6.2 mi SSW 4.6 mph - N/A   Mostly Cloudy
1:55 AM 51.8 °F 50.0 °F 94% 29.71 in 6.2 mi SSW 4.6 mph - N/A   Overcast
2:25 AM 51.8 °F 50.0 °F 94% 29.71 in 6.2 mi SSW 4.6 mph - N/A   Drizzle
2:55 AM 51.8 °F 50.0 °F 94% 29.71 in 6.2 mi SSW 6.9 mph - N/A Rain Light Rain Showers
3:25 AM 51.8 °F 50.0 °F 94% 29.71 in 6.2 mi SSW 5.8 mph - N/A Rain Light Rain
3:55 AM 51.8 °F 51.8 °F 100% 29.68 in 6.2 mi SW 6.9 mph - N/A Rain Light Rain
4:25 AM 51.8 °F 51.8 °F 100% 29.68 in 6.2 mi SSW 5.8 mph - N/A Rain Light Rain Showers
4:55 AM 51.8 °F 51.8 °F 100% 29.68 in 6.2 mi SSW 5.8 mph - N/A Rain Light Rain
5:25 AM 51.8 °F 51.8 °F 100% 29.65 in 6.2 mi South 3.5 mph - N/A   Drizzle
5:55 AM 51.8 °F 51.8 °F 100% 29.65 in 6.2 mi SSW 3.5 mph - N/A Rain Light Rain
6:06 AM 51.8 °F 51.8 °F 100% 29.65 in 4.3 mi SSW 3.5 mph - N/A Rain Light Rain
6:10 AM 51.8 °F 51.8 °F 100% 29.65 in 5.0 mi SSW 3.5 mph - N/A Rain Light Rain
6:19 AM 51.8 °F 50.0 °F 94% 29.65 in 5.0 mi SW 3.5 mph - N/A Rain Light Rain
6:25 AM 51.8 °F 50.0 °F 94% 29.65 in 5.0 mi SW 4.6 mph - N/A Rain Light Rain
6:32 AM 51.8 °F 51.8 °F 100% 29.65 in 5.0 mi SW 4.6 mph - N/A Rain Light Rain
6:46 AM 51.8 °F 51.8 °F 100% 29.65 in 4.3 mi SW 4.6 mph - N/A Rain Rain
6:55 AM 51.8 °F 51.8 °F 100% 29.65 in 4.3 mi SW 4.6 mph - N/A Rain Light Rain
7:13 AM 51.8 °F 50.0 °F 94% 29.65 in 5.0 mi WSW 5.8 mph - N/A Rain Rain
7:14 AM 51.8 °F 50.0 °F 94% 29.65 in 4.3 mi WSW 6.9 mph - N/A Rain Rain Showers
7:25 AM 51.8 °F 50.0 °F 94% 29.65 in 4.3 mi WSW 5.8 mph - N/A Rain Rain
7:40 AM 50.0 °F 50.0 °F 100% 29.65 in 3.7 mi WSW 5.8 mph - N/A Rain Rain
7:49 AM 50.0 °F 50.0 °F 100% 29.65 in 3.7 mi West 5.8 mph - N/A Rain Rain Showers
7:55 AM 50.0 °F 50.0 °F 100% 29.65 in 5.0 mi West 6.9 mph - N/A Rain Rain
8:08 AM 50.0 °F 48.2 °F 94% 29.65 in 6.2 mi WSW 5.8 mph - N/A Rain Rain Showers
8:25 AM 50.0 °F 48.2 °F 94% 29.65 in 6.2 mi SW 4.6 mph - N/A Rain Light Rain
8:50 AM 50.0 °F 48.2 °F 94% 29.65 in 6.2 mi WSW 8.1 mph - N/A Rain Light Rain
8:55 AM 50.0 °F 48.2 °F 94% 29.68 in 6.2 mi WSW 6.9 mph - N/A Rain Light Rain
9:05 AM 50.0 °F 48.2 °F 94% 29.65 in 6.2 mi SW 3.5 mph - N/A Rain Light Rain Showers
9:25 AM 50.0 °F 48.2 °F 94% 29.65 in 6.2 mi WSW 2.3 mph - N/A Rain Light Rain
9:55 AM 50.0 °F 50.0 °F 100% 29.68 in 6.2 mi SW 5.8 mph - N/A   Light Drizzle
10:25 AM 50.0 °F 50.0 °F 100% 29.68 in 6.2 mi WSW 8.1 mph - N/A   Mostly Cloudy
10:55 AM 50.0 °F 50.0 °F 100% 29.71 in 6.2 mi WSW 6.9 mph - N/A Rain Light Rain Showers
11:25 AM 51.8 °F 50.0 °F 94% 29.71 in 6.2 mi SW 9.2 mph - N/A Rain Light Rain
11:34 AM 51.8 °F 50.0 °F 94% 29.71 in 6.2 mi WSW 11.5 mph - N/A   Overcast
11:55 AM 51.8 °F 48.2 °F 88% 29.71 in 6.2 mi WSW 12.7 mph - N/A Rain Light Rain
12:25 PM 55.4 °F 50.0 °F 82% 29.74 in 6.2 mi WSW 12.7 mph - N/A   Partly Cloudy
12:26 PM 55.4 °F 50.0 °F 82% 29.74 in 6.2 mi WSW 12.7 mph - N/A   Partly Cloudy
12:36 PM 55.4 °F 51.8 °F 88% 29.74 in 6.2 mi SW 10.4 mph - N/A   Scattered Clouds
12:38 PM 55.4 °F 51.8 °F 88% 29.74 in 6.2 mi SW 12.7 mph - N/A   Mostly Cloudy
12:42 PM 55.4 °F 50.0 °F 82% 29.74 in 6.2 mi WSW 13.8 mph - N/A   Mostly Cloudy
12:46 PM 55.4 °F 50.0 °F 82% 29.74 in 6.2 mi WSW 13.8 mph - N/A   Scattered Clouds
12:48 PM 55.4 °F 50.0 °F 82% 29.74 in 6.2 mi WSW 13.8 mph - N/A   Scattered Clouds
12:55 PM 57.2 °F 50.0 °F 77% 29.74 in 6.2 mi WSW 12.7 mph - N/A   Scattered Clouds
1:17 PM 57.2 °F 48.2 °F 72% 29.77 in 6.2 mi West 12.7 mph - N/A   Mostly Cloudy
1:25 PM 55.4 °F 44.6 °F 67% 29.77 in 6.2 mi West 15.0 mph - N/A   Mostly Cloudy
1:55 PM 59.0 °F 48.2 °F 67% 29.77 in 6.2 mi West 17.3 mph - N/A   Scattered Clouds
2:25 PM 59.0 °F 46.4 °F 63% 29.80 in 6.2 mi West 13.8 mph - N/A   Mostly Cloudy
2:55 PM 55.4 °F 44.6 °F 67% 29.80 in 6.2 mi West 16.1 mph - N/A   Scattered Clouds
3:25 PM 59.0 °F 44.6 °F 59% 29.83 in 6.2 mi West 20.7 mph - N/A   Mostly Cloudy
3:30 PM 59.0 °F 46.4 °F 63% 29.83 in 6.2 mi West 18.4 mph - N/A   Scattered Clouds
3:55 PM 59.0 °F 44.6 °F 59% 29.83 in 6.2 mi West 20.7 mph - N/A   Mostly Cloudy
4:25 PM 57.2 °F 44.6 °F 63% 29.86 in 6.2 mi West 19.6 mph - N/A   Partly Cloudy
4:34 PM 57.2 °F 44.6 °F 63% 29.86 in 6.2 mi West 17.3 mph - N/A   Partly Cloudy
4:55 PM 57.2 °F 44.6 °F 63% 29.86 in 6.2 mi West 19.6 mph - N/A   Unknown
5:25 PM 57.2 °F 46.4 °F 67% 29.86 in 6.2 mi West 13.8 mph - N/A   Partly Cloudy
5:55 PM 57.2 °F 44.6 °F 63% 29.89 in 6.2 mi West 13.8 mph - N/A   Scattered Clouds
6:25 PM 55.4 °F 44.6 °F 67% 29.89 in 6.2 mi WSW 9.2 mph - N/A   Scattered Clouds
6:55 PM 53.6 °F 44.6 °F 72% 29.89 in 6.2 mi WSW 8.1 mph - N/A   Partly Cloudy
7:25 PM 53.6 °F 46.4 °F 77% 29.89 in 6.2 mi SW 5.8 mph - N/A   Partly Cloudy
7:55 PM 53.6 °F 46.4 °F 77% 29.92 in 6.2 mi SSW 4.6 mph - N/A   Overcast
8:25 PM 53.6 °F 44.6 °F 72% 29.92 in 6.2 mi SSW 5.8 mph - N/A   Mostly Cloudy
8:55 PM 53.6 °F 44.6 °F 72% 29.92 in 6.2 mi SSW 5.8 mph - N/A   Overcast
9:25 PM 53.6 °F 44.6 °F 72% 29.92 in 6.2 mi SSW 6.9 mph - N/A   Mostly Cloudy
9:55 PM 53.6 °F 44.6 °F 72% 29.92 in 6.2 mi SW 9.2 mph - N/A   Overcast
10:25 PM 53.6 °F 44.6 °F 72% 29.92 in 6.2 mi SW 10.4 mph - N/A   Mostly Cloudy
10:55 PM 53.6 °F 44.6 °F 72% 29.92 in 6.2 mi SSW 10.4 mph - N/A   Overcast
11:25 PM 53.6 °F 44.6 °F 72% 29.92 in 6.2 mi SW 9.2 mph - N/A   Overcast
11:55 PM 53.6 °F 46.4 °F 77% 29.89 in 6.2 mi SSW 5.8 mph - N/A   Overcast